Location: DARK SKY Beskydy - Park tmavé oblohy, www.darkskybeskydy.cz
(49.4926°N, 18.5016°E)
Time: 03:52:16
(UTC+01:00)

Envisat - Pass Details

Date: 07 December 2022
Orbit: 763 x 765 km, 98.2° (Epoch: 05 February)

Event Time Altitude Azimuth Distance (km) Brightness Sun altitude
Rises 06:08:53 0° 360° (N) 3,245 6.0 -12.1°
Reaches altitude 10° 06:12:38 10° 331° (NNW) 2,313 5.0 -11.5°
Enters shadow 06:13:43 12° 319° (NW) 2,191 4.8 -11.4°
